This is the latest recevied weather packets stored in our database for station/object KA1AL. If no packets are shown the sender has not sent any weather packets the latest 1 day(s).
| Time | Temp. | Humidity | Pressure | Rain* | Wind** | Luminosity | Snow |
|---|---|---|---|---|---|---|---|
| 1777988144 | 13.33° C | 74% | 1006.1 hPa | 0 mm | 2.68 m/s, 216° | 223 W/m² | - |
| 1777987840 | 13.89° C | 73% | 1006.2 hPa | 0 mm | 4.47 m/s, 193° | 334 W/m² | - |
| 1777987537 | 13.89° C | 74% | 1006.1 hPa | 0 mm | 2.24 m/s, 187° | 277 W/m² | - |
| 1777987235 | 13.89° C | 73% | 1006 hPa | 0 mm | 2.68 m/s, 240° | 482 W/m² | - |
| 1777986931 | 13.89° C | 75% | 1006.3 hPa | 0 mm | 3.13 m/s, 261° | 370 W/m² | - |
| 1777986630 | 13.89° C | 74% | 1006.4 hPa | 0 mm | 3.58 m/s, 215° | 624 W/m² | - |
| 1777986327 | 13.33° C | 75% | 1006.4 hPa | 0 mm | 3.13 m/s, 222° | 232 W/m² | - |
| 1777986026 | 12.78° C | 76% | 1006.4 hPa | 0 mm | 4.02 m/s, 250° | 577 W/m² | - |
| 1777985721 | 12.78° C | 76% | 1006.4 hPa | 0 mm | 4.02 m/s, 196° | 301 W/m² | - |
| 1777985418 | 12.22° C | 77% | 1006.3 hPa | 0 mm | 3.13 m/s, 201° | 281 W/m² | - |
| 1777985115 | 12.22° C | 77% | 1006.4 hPa | 0 mm | 3.13 m/s, 241° | 214 W/m² | - |
| 1777984811 | 12.22° C | 77% | 1006.6 hPa | 0 mm | 3.13 m/s, 197° | 194 W/m² | - |
| 1777984508 | 12.78° C | 76% | 1006.4 hPa | 0 mm | 4.02 m/s, 214° | 192 W/m² | - |
| 1777984204 | 12.78° C | 77% | 1006.4 hPa | 0 mm | 1.79 m/s, 266° | 255 W/m² | - |
| 1777983901 | 12.22° C | 78% | 1006.4 hPa | 0 mm | 2.24 m/s, 249° | 343 W/m² | - |
| 1777983598 | 12.22° C | 80% | 1006.5 hPa | 0 mm | 3.13 m/s, 244° | 328 W/m² | - |
| 1777983295 | 11.67° C | 79% | 1006.8 hPa | 0 mm | 2.68 m/s, 219° | 283 W/m² | - |
| 1777982991 | 11.67° C | 81% | 1006.3 hPa | 0 mm | 2.24 m/s, 234° | 198 W/m² | - |
| 1777982687 | 11.67° C | 81% | 1006.5 hPa | 0 mm | 3.13 m/s, 229° | 188 W/m² | - |
| 1777982386 | 11.67° C | 80% | 1006.7 hPa | 0 mm | 4.02 m/s, 219° | 208 W/m² | - |
| 1777982083 | 11.11° C | 81% | 1006.4 hPa | 0 mm | 2.24 m/s, 199° | 214 W/m² | - |
| 1777981782 | 11.11° C | 82% | 1006.7 hPa | 0 mm | 1.79 m/s, 248° | 256 W/m² | - |
| 1777981477 | 10.56° C | 84% | 1006.5 hPa | 0 mm | 2.68 m/s, 223° | 181 W/m² | - |
| 1777981174 | 10° C | 84% | 1006.7 hPa | 0 mm | 2.24 m/s, 199° | 131 W/m² | - |
| 1777980870 | 10° C | 83% | 1006.4 hPa | 0 mm | 1.79 m/s, 196° | 128 W/m² | - |
* Rain latest hour (hover to see other rain measurements)
** Current wind speed in m/s (hover to see current wind gust speed)